Regional Weather Roundup
Issued by NWS

Home | Current Version | Previous Version | Graphics & Text | Print | Product List | Glossary Off
Versions: 1 2 3 4 5 6 7 8 9 10 11 12 13 14 15 16 17 18 19 20 21 22 23 24 25 26 27 28 29 30 31 32 33 34 35 36 37 38 39 40 41 42 43 44 45 46 47 48 49 50

000
ASUS43 KTOP 281608
RWRKS

WEATHER ROUNDUP FOR KANSAS
NATIONAL WEATHER SERVICE GOODLAND KS
1100 AM CDT SUN AUG 28 2016

NOTE:  "FAIR" INDICATES FEW OR NO CLOUDS BELOW 12,000 FEET WITH NO
SIGNIFICANT WEATHER AND/OR OBSTRUCTIONS TO VISIBILITY.

KSZ001>006-013>018-027>032-041>047-281700-
NORTHWEST KANSAS

CITY           SKY/WX    TMP DP  RH WIND       PRES   REMARKS
GOODLAND       MOSUNNY   71  57  61 S8        30.13S
HAYS           MOSUNNY   79  61  53 S9        30.10R
HILL CITY      CLOUDY    74  64  71 CALM      30.11S
RUSSELL        SUNNY     81  66  60 S9        30.09R
$$

KSZ061>065-074>080-084>089-281700-
SOUTHWEST KANSAS

CITY           SKY/WX    TMP DP  RH WIND       PRES   REMARKS
DODGE CITY     CLOUDY    75  62  64 S7        30.14R
ELKHART          N/A     74  60  61 S9          N/A
GARDEN CITY    PTSUNNY   74  59  59 SE10      30.13F
GREAT BEND     SUNNY     81  63  54 S7        30.10S
LIBERAL        CLOUDY    75  64  69 S9        30.15S
PRATT          CLOUDY    74  62  66 SE6       30.12R
$$

KSZ066>073-081>083-090>101-281700-
SOUTHEAST KANSAS

CITY           SKY/WX    TMP DP  RH WIND       PRES   REMARKS
CHANUTE        SUNNY     84  74  71 S7        30.13S
COFFEYVILLE    MOSUNNY   85  73  67 CALM      30.13S
HUTCHINSON     SUNNY     83  68  60 SE6       30.10F
MEDICINE LODGE   N/A     79  66  64 SE8       30.11S
NEWTON         SUNNY     83  70  64 SW8       30.13R
PARSONS        SUNNY     85  73  67 SW8       30.15R
WICHITA INTL   MOSUNNY   84  70  62 S7        30.11R
WICHITA JABRA  SUNNY     83  70  64 S7        30.11S
WICHITA MCCONL SUNNY     83  70  64 SW9       30.12R
WINFIELD       SUNNY     83  73  72 S6        30.13S
$$

KSZ007>012-019>026-033>040-048>060-102>105-281700-
NORTHEAST KANSAS

CITY           SKY/WX    TMP DP  RH WIND       PRES   REMARKS
CONCORDIA      SUNNY     82  70  66 SE8       30.09F
EMPORIA        SUNNY     82  72  71 SE9       30.13R
LAWRENCE       SUNNY     84  73  69 SE5       30.12S
MANHATTAN      MOSUNNY   86  71  60 S7        30.10R
MARYSVILLE     MOSUNNY   82  73  74 SE6       30.11S
OLATHE IND     SUNNY     82  72  71 S7        30.15S
OLATHE EXE     SUNNY     82  72  71 S5        30.15R
SALINA         SUNNY     84  70  62 S12       30.10R
TOPEKA BILLARD SUNNY     84  73  69 SE3       30.11S
TOPEKA FORBES  SUNNY     86  72  62 S5        30.12S
$$




USA.gov is the U.S. government's official web portal to all federal, state and local government web resources and services.